Weather History for Plattsmouth, NE

Change the Weather History Date:

Thursday, January 23, 2014

  Actual Average (KOFF) Record (KOFF)
Temperature  
Mean Temperature 6 °F -  
Max Temperature 15 °F 31 °F 59 °F (2004)
Min Temperature -4 °F 14 °F -9 °F (2003)
Degree Days  
Heating Degree Days 60    
Moisture  
Dew Point -11 °F    
Average Humidity 50    
Maximum Humidity 68    
Minimum Humidity 30    
Precipitation  
Precipitation 0.00 in - - ()
Sea Level Pressure  
Sea Level Pressure 30.68 in    
Wind  
Wind Speed 13 mph (WNW)    
Max Wind Speed 18 mph    
Max Gust Speed 24 mph    
Visibility 10 miles    
Events      
Averages and records for this station are not official NWS values.
T = Trace of Precipitation, MM = Missing Value Source: NWS Daily Summary

Daily Weather History Graph

Daily Weather History Graph

Search for Another Location

Airport:

Trip Planner

Search our weather history database for the weather conditions in past years. The results will help you decide how hot, cold, wet, or windy it might be!

Date:

Astronomy

Jan. 23, 2014 Rise Set
Actual Time 7:41 AM CST 5:29 PM CST
Civil Twilight 7:12 AM CST 5:59 PM CST
Nautical Twilight 6:38 AM CST 6:32 PM CST
Astronomical Twilight 6:06 AM CST 7:05 PM CST
Moon 12:05 AM CST (1/23) 11:13 AM CST (1/23)
Length of Visible Light 10h 47m
Length of Day
9h 48m
Waning Gibbous, 55% of the Moon is Illuminated
Jan 23
Waning Gibbous
Jan 23
Last Quarter
Jan 30
New
Feb 6
First Quarter
Feb 14
Full

Hourly Weather History & Observations

Time (CST) Temp. Windchill Dew Point Humidity Pressure Visibility Wind Dir Wind Speed Gust Speed Precip Events Conditions
12:15 AM -0.4 °F -19.9 °F -11.7 °F 59% 30.59 in 10.0 mi NNW 15.0 mph 18.4 mph N/A   Clear
12:35 AM -0.6 °F -20.1 °F -12.1 °F 58% 30.59 in 10.0 mi NNW 15.0 mph - N/A   Clear
12:55 AM -0.8 °F -18.9 °F -11.6 °F 60% 30.59 in 10.0 mi NNW 12.7 mph 18.4 mph N/A   Clear
1:15 AM -0.8 °F -21.0 °F -11.7 °F 60% 30.60 in 10.0 mi NNW 16.1 mph - N/A   Clear
1:35 AM -0.9 °F -22.4 °F -12.1 °F 59% 30.60 in 10.0 mi NNW 18.4 mph - N/A   Clear
1:55 AM -0.9 °F -21.9 °F -12.6 °F 58% 30.61 in 10.0 mi NNW 17.3 mph 23.0 mph N/A   Clear
2:15 AM -1.5 °F -21.9 °F -12.6 °F 59% 30.61 in 10.0 mi NNW 16.1 mph 20.7 mph N/A   Clear
2:35 AM -1.7 °F -21.5 °F -12.8 °F 59% 30.63 in 10.0 mi NW 15.0 mph 20.7 mph N/A   Clear
2:55 AM -2.2 °F -23.5 °F -13.0 °F 60% 30.63 in 10.0 mi NNW 17.3 mph - N/A   Clear
3:15 AM -2.4 °F -22.4 °F -13.0 °F 61% 30.64 in 10.0 mi NW 15.0 mph 21.9 mph N/A   Clear
3:35 AM -2.4 °F -23.1 °F -12.6 °F 62% 30.63 in 10.0 mi NW 16.1 mph 24.2 mph N/A   Clear
3:55 AM -2.7 °F -24.2 °F -12.5 °F 63% 30.64 in 10.0 mi NW 17.3 mph 23.0 mph N/A   Clear
4:15 AM -3.1 °F -24.0 °F -12.3 °F 65% 30.65 in 10.0 mi NNW 16.1 mph - N/A   Clear
4:35 AM -3.1 °F -24.0 °F -12.3 °F 65% 30.66 in 10.0 mi NW 16.1 mph 20.7 mph N/A   Clear
4:55 AM -3.5 °F -23.1 °F -12.1 °F 67% 30.68 in 10.0 mi NW 13.8 mph - N/A   Clear
5:15 AM -3.5 °F -24.5 °F -12.1 °F 67% 30.68 in 10.0 mi NW 16.1 mph - N/A   Clear
5:35 AM -4.0 °F -24.5 °F -12.3 °F 68% 30.69 in 10.0 mi NW 15.0 mph 19.6 mph N/A   Clear
5:55 AM -4.0 °F -23.7 °F -12.5 °F 67% 30.70 in 10.0 mi NW 13.8 mph - N/A   Clear
6:15 AM -4.0 °F -23.7 °F -12.3 °F 68% 30.71 in 10.0 mi NNW 13.8 mph 20.7 mph N/A   Clear
6:35 AM -4.0 °F -23.0 °F -12.5 °F 67% 30.72 in 10.0 mi NNW 12.7 mph 18.4 mph N/A   Clear
6:55 AM -4.4 °F -24.2 °F -12.6 °F 68% 30.72 in 10.0 mi NW 13.8 mph - N/A   Clear
7:15 AM -4.4 °F -24.2 °F -12.5 °F 68% 30.73 in 10.0 mi NNW 13.8 mph - N/A   Clear
7:35 AM -4.4 °F -22.6 °F -12.8 °F 67% 30.74 in 10.0 mi NNW 11.5 mph - N/A   Clear
7:55 AM -4.0 °F -23.7 °F -12.3 °F 68% 30.75 in 10.0 mi NNW 13.8 mph 19.6 mph N/A   Clear
8:15 AM -3.6 °F -24.0 °F -12.1 °F 67% 30.77 in 10.0 mi NW 15.0 mph - N/A   Clear
8:35 AM -2.6 °F -22.6 °F -11.2 °F 67% 30.77 in 10.0 mi NW 15.0 mph - N/A   Clear
8:55 AM -1.7 °F -22.8 °F -11.0 °F 64% 30.77 in 10.0 mi NW 17.3 mph 21.9 mph N/A   Clear
9:15 AM -0.9 °F -19.9 °F -10.7 °F 63% 30.79 in 10.0 mi NW 13.8 mph - N/A   Clear
9:35 AM 0.1 °F -19.2 °F -10.3 °F 61% 30.79 in 10.0 mi NW 15.0 mph - N/A   Clear
9:55 AM 1.0 °F -18.0 °F -10.3 °F 59% 30.80 in 10.0 mi NW 15.0 mph - N/A   Clear
10:15 AM 1.9 °F -14.7 °F -10.5 °F 56% 30.80 in 10.0 mi NNW 11.5 mph - N/A   Clear
10:35 AM 3.2 °F -13.9 °F -9.9 °F 54% 30.81 in 10.0 mi NW 12.7 mph - N/A   Clear
10:55 AM 4.5 °F -10.7 °F -9.6 °F 52% 30.81 in 10.0 mi NW 10.4 mph - N/A   Clear
11:15 AM 5.0 °F -10.8 °F -9.8 °F 51% 30.81 in 10.0 mi NW 11.5 mph 17.3 mph N/A   Clear
11:35 AM 6.8 °F -7.8 °F -9.0 °F 48% 30.81 in 10.0 mi NW 10.4 mph - N/A   Clear
11:55 AM 7.3 °F -7.1 °F -9.6 °F 46% 30.80 in 10.0 mi NW 10.4 mph - N/A   Clear
12:15 PM 8.2 °F -4.1 °F -9.4 °F 45% 30.79 in 10.0 mi NW 8.1 mph 17.3 mph N/A   Clear
12:35 PM 9.7 °F -4.2 °F -8.7 °F 43% 30.77 in 10.0 mi NW 10.4 mph - N/A   Clear
12:55 PM 10.2 °F -0.6 °F -9.0 °F 42% 30.77 in 10.0 mi WNW 6.9 mph 16.1 mph N/A   Clear
1:15 PM 11.3 °F -1.3 °F -9.0 °F 40% 30.75 in 10.0 mi NW 9.2 mph - N/A   Clear
1:35 PM 11.5 °F -1.1 °F -9.6 °F 38% 30.75 in 10.0 mi WNW 9.2 mph - N/A   Clear
1:55 PM 12.6 °F 1.1 °F -9.6 °F 37% 30.74 in 10.0 mi WNW 8.1 mph - N/A   Clear
2:15 PM 13.6 °F 1.6 °F -10.3 °F 34% 30.73 in 10.0 mi West 9.2 mph - N/A   Clear
2:35 PM 13.6 °F 1.6 °F -9.2 °F 36% 30.74 in 10.0 mi WNW 9.2 mph 16.1 mph N/A   Clear
2:55 PM 14.4 °F 2.4 °F -9.8 °F 34% 30.73 in 10.0 mi NW 9.2 mph - N/A   Clear
3:15 PM 14.5 °F 0.5 °F -9.9 °F 33% 30.73 in 10.0 mi West 12.7 mph - N/A   Clear
3:35 PM 14.9 °F 5.0 °F -10.3 °F 32% 30.72 in 10.0 mi WNW 6.9 mph - N/A   Clear
3:55 PM 15.3 °F 4.4 °F -10.7 °F 31% 30.71 in 10.0 mi WNW 8.1 mph - N/A   Clear
4:15 PM 14.9 °F 6.1 °F -11.4 °F 30% 30.71 in 10.0 mi WNW 5.8 mph - N/A   Clear
4:35 PM 14.7 °F 5.9 °F -11.4 °F 31% 30.70 in 10.0 mi WNW 5.8 mph - N/A   Clear
4:55 PM 14.0 °F 3.9 °F -11.2 °F 32% 30.70 in 10.0 mi West 6.9 mph - N/A   Clear
5:15 PM 12.9 °F 5.2 °F -11.2 °F 33% 30.70 in 10.0 mi WSW 4.6 mph - N/A   Clear
5:35 PM 11.7 °F 3.7 °F -10.7 °F 36% 30.70 in 10.0 mi West 4.6 mph - N/A   Clear
5:55 PM 10.9 °F 2.9 °F -10.8 °F 37% 30.69 in 10.0 mi WSW 4.6 mph - N/A   Clear
6:15 PM 10.0 °F 0.4 °F -11.2 °F 38% 30.68 in 10.0 mi SW 5.8 mph - N/A   Clear
6:35 PM 9.3 °F -0.5 °F -11.2 °F 39% 30.66 in 10.0 mi SW 5.8 mph - N/A   Clear
6:55 PM 9.5 °F 1.2 °F -11.2 °F 39% 30.66 in 10.0 mi SSW 4.6 mph - N/A   Clear
7:15 PM 7.9 °F -3.5 °F -11.0 °F 42% 30.66 in 10.0 mi SSW 6.9 mph - N/A   Clear
7:35 PM 7.7 °F -3.7 °F -10.7 °F 43% 30.65 in 10.0 mi SSW 6.9 mph - N/A   Clear
7:55 PM 8.6 °F -3.7 °F -10.5 °F 42% 30.63 in 10.0 mi SSW 8.1 mph - N/A   Clear
8:35 PM 9.1 °F -4.0 °F -10.5 °F 41% 30.62 in 10.0 mi SSW 9.2 mph - N/A   Clear
8:55 PM 9.7 °F -4.2 °F -10.5 °F 40% 30.60 in 10.0 mi South 10.4 mph - N/A   Clear
9:15 PM 9.3 °F -4.6 °F -10.5 °F 40% 30.59 in 10.0 mi South 10.4 mph - N/A   Clear
9:55 PM 8.1 °F -7.0 °F -10.3 °F 43% 30.56 in 10.0 mi SSW 11.5 mph - N/A   Clear
10:15 PM 8.8 °F -6.1 °F -10.3 °F 42% 30.55 in 10.0 mi South 11.5 mph - N/A   Clear
10:35 PM 8.8 °F -7.5 °F -10.3 °F 42% 30.53 in 10.0 mi SSW 13.8 mph - N/A   Clear
10:55 PM 8.6 °F -7.0 °F -9.6 °F 44% 30.52 in 10.0 mi South 12.7 mph - N/A   Clear
11:15 PM 8.6 °F -7.7 °F -9.4 °F 44% 30.49 in 10.0 mi South 13.8 mph 18.4 mph N/A   Clear
11:35 PM 10.0 °F -7.1 °F -8.7 °F 43% 30.47 in 10.0 mi SSW 16.1 mph - N/A   Clear
11:55 PM 10.4 °F -6.0 °F -8.7 °F 42% 30.47 in 10.0 mi SSW 15.0 mph 19.6 mph N/A   Clear